Location: Unspecified
(0.0000°N, 0.0000°E)
Time: 10:10:54
(UTC+00:00)

Vanguard 2 Rocket - Visible Passes

Search period start: 29 July 2016 00:00
Search period end: 08 August 2016 00:00
Orbit: 555 x 3328 km, 32.9° (Epoch: 28 July)

Date Brightness Start Highest point End Pass type
(mag) Time Alt. Az. Time Alt. Az. Time Alt. Az.
29 Jul 10.2 01:25:48 23° NNW 01:25:48 23° NNW 01:32:33 10° NNE visible
29 Jul 9.6 19:26:18 10° SW 19:41:59 47° SE 19:52:21 30° E visible
29 Jul 9.5 21:41:31 10° WSW 22:23:07 - NE 21:58:21 73° W visible
30 Jul 10.3 00:02:43 10° W 00:28:51 23° N 00:33:51 10° NNE visible
30 Jul 10.5 02:35:27 10° NW 02:39:45 11° NNW 02:43:33 10° N visible
30 Jul 9.8 18:27:08 10° SSW 18:40:11 35° SE 18:57:16 10° E visible
30 Jul 9.3 20:40:48 10° SW 20:59:02 80° SE 21:04:24 61° ENE visible
30 Jul 10.2 22:59:14 10° WSW 23:31:41 18° NNE 23:34:32 10° NE visible
31 Jul 10.5 01:37:23 18° NNW 01:37:56 18° NNW 01:46:41 10° NNE visible
31 Jul 9.4 19:40:49 10° SW 19:57:04 63° SE 20:10:56 26° ENE visible
31 Jul 9.6 21:57:01 10° WSW 22:16:10 63° NW 22:34:36 10° NE visible
01 Aug 10.4 00:20:43 10° W 00:39:52 25° NNW 00:48:09 10° NNE visible
01 Aug 9.5 18:41:28 10° SSW 18:55:24 47° SE 19:14:18 10° ENE visible
01 Aug 9.5 20:55:52 10° WSW 21:14:01 79° NW 21:24:30 39° NE visible
01 Aug 10.3 23:16:11 10° W 23:41:36 27° N 23:48:55 10° NNE visible
02 Aug 10.6 01:47:08 10° NW 01:54:39 14° NNW 02:00:59 10° N visible
02 Aug 9.4 19:55:35 10° SW 20:11:59 83° SE 20:32:39 10° ENE visible
02 Aug 10.0 22:13:10 10° WSW 22:31:27 47° NNW 22:49:06 10° NE visible
03 Aug 10.6 00:39:47 10° WNW 00:52:17 20° NNW 01:02:35 10° NNE visible
03 Aug 9.9 05:29:56 10° N 05:32:57 12° NNE 05:35:32 10° NE visible
03 Aug 9.3 18:56:00 10° SW 19:10:20 64° SE 19:30:25 10° ENE visible
03 Aug 9.7 21:11:26 10° WSW 21:29:08 61° NW 21:48:41 10° NE visible
03 Aug 10.5 23:34:08 10° WNW 23:49:45 27° NNW 00:03:21 10° NNE visible
04 Aug 10.7 02:06:55 10° NNW 02:11:52 12° NNW 02:16:13 10° N visible
04 Aug 10.2 04:29:54 10° N 04:32:21 11° N 04:34:32 10° NNE visible
04 Aug 9.5 20:10:43 10° WSW 20:27:00 77° NW 20:47:37 10° NE visible
04 Aug 10.3 22:30:09 10° W 22:47:09 36° NNW 23:03:31 10° NNE visible
05 Aug 10.7 00:59:28 10° NW 01:09:16 16° NNW 01:17:32 10° NNE visible
05 Aug 10.5 03:28:06 10° NNW 03:31:08 11° N 03:33:51 10° NNE visible
05 Aug 9.4 05:42:44 10° NNW 05:49:08 22° NNE 05:53:36 10° ENE visible
05 Aug 9.3 19:10:49 10° SW 19:25:13 85° SE 19:45:51 10° NE visible
05 Aug 10.1 21:27:39 10° W 21:44:37 46° NNW 22:03:10 10° NE visible
05 Aug 10.7 23:53:02 10° WNW 00:06:24 21° NNW 00:18:04 10° NNE visible
06 Aug 10.7 02:24:03 10° NNW 02:29:15 12° N 02:33:44 10° NNE visible
06 Aug 9.9 04:42:17 10° NNW 04:48:52 18° NNE 04:53:41 10° ENE visible
06 Aug 9.2 18:11:35 10° SW 18:24:00 65° SE 18:43:19 10° ENE visible
06 Aug 9.8 20:26:21 10° WSW 20:42:17 58° NNW 21:02:15 10° NE visible
06 Aug 10.6 22:48:03 10° WNW 23:03:26 27° NNW 23:18:04 10° NNE visible
07 Aug 10.8 01:18:26 10° NW 01:26:42 14° N 01:33:42 10° NNE visible
07 Aug 10.2 03:41:06 10° NNW 03:48:01 16° N 03:53:17 10° NE visible
07 Aug 9.5 19:26:01 10° WSW 19:40:18 73° NW 20:00:46 10° NE visible
07 Aug 10.4 21:44:38 10° W 22:00:33 34° NNW 22:17:37 10° NNE visible
